Immokalee Regional Airport [I, FL

4:23 AM EDT on April 23, 2017 (GMT -0400)
Immokalee

Weather History for KIMM - August, 2014

Change the Weather History Date:

Thursday, August 21, 2014

  Actual Average (KRSW) Record (KRSW)
Temperature  
Mean Temperature 86 °F -  
Max Temperature 98 °F 90 °F 98 °F (2005)
Min Temperature 73 °F 74 °F 70 °F (1947)
Cooling Degree Days 20    
Growing Degree Days 36 (Base 50)    
Moisture  
Dew Point 78 °F    
Average Humidity 71    
Maximum Humidity 100    
Minimum Humidity 42    
Precipitation  
Precipitation 0.00 in - - ()
Sea Level Pressure  
Sea Level Pressure 30.10 in    
Wind  
Wind Speed 1 mph (ESE)    
Max Wind Speed 13 mph    
Max Gust Speed 20 mph    
Visibility 8 miles    
Events      
Averages and records for this station are not official NWS values.
T = Trace of Precipitation, MM = Missing Value Source: NWS Daily Summary

Daily Weather History Graph

Daily Weather History Graph

Search for Another Location

Airport or City:

Trip Planner

Search our weather history database for the weather conditions in past years. The results will help you decide how hot, cold, wet, or windy it might be!

Date:

Astronomy

Aug. 21, 2014 Rise Set
Actual Time 7:00 AM EDT 7:56 PM EDT
Civil Twilight 6:36 AM EDT 8:20 PM EDT
Nautical Twilight 6:08 AM EDT 8:48 PM EDT
Astronomical Twilight 5:39 AM EDT 9:17 PM EDT
Moon 3:38 AM EDT (8/21) 5:16 PM EDT (8/21)
Length of Visible Light 13h 43m
Length of Day
12h 55m
Waning Crescent, 13% of the Moon is Illuminated
Aug 21
Waning Crescent
Aug 25
New
Sep 2
First Quarter
Sep 8
Full
Sep 15
Last Quarter

Hourly Weather History & Observations

Time (EDT) Temp. Heat Index Dew Point Humidity Pressure Visibility Wind Dir Wind Speed Gust Speed Precip Events Conditions
12:15 AM 75.2 °F - - N/A% 30.12 in 8.0 mi Calm Calm - 0.00 in   Clear
12:35 AM 73.4 °F - - N/A% 30.12 in 8.0 mi Calm Calm - 0.00 in   Partly Cloudy
12:55 AM 75.2 °F - - N/A% 30.12 in 9.0 mi Calm Calm - 0.00 in   Partly Cloudy
1:15 AM 73.4 °F - - N/A% 30.12 in 8.0 mi Calm Calm - 0.00 in   Clear
1:35 AM 75.2 °F - - N/A% 30.11 in 8.0 mi Calm Calm - 0.00 in   Clear
2:15 AM 73.4 °F - - N/A% 30.10 in 9.0 mi Calm Calm - 0.00 in   Clear
2:35 AM 73.4 °F - - N/A% 30.10 in 7.0 mi Calm Calm - 0.00 in   Clear
2:55 AM 73.4 °F - - N/A% 30.10 in 8.0 mi Calm Calm - 0.00 in   Clear
3:15 AM 73.4 °F - - N/A% 30.10 in 7.0 mi Calm Calm - 0.00 in   Clear
3:35 AM 73.4 °F - - N/A% 30.10 in 6.0 mi Calm Calm - 0.00 in   Clear
3:55 AM 73.4 °F - - N/A% 30.09 in 7.0 mi Calm Calm - 0.00 in   Clear
4:15 AM 73.4 °F - - N/A% 30.08 in 9.0 mi Calm Calm - 0.00 in   Clear
4:35 AM 73.4 °F - - N/A% 30.08 in 8.0 mi Calm Calm - 0.00 in   Clear
4:55 AM 73.4 °F - - N/A% 30.07 in 8.0 mi Calm Calm - 0.00 in   Clear
5:15 AM 73.4 °F - - N/A% 30.07 in 8.0 mi Calm Calm - 0.00 in   Clear
5:35 AM 73.4 °F - - N/A% 30.07 in 7.0 mi Calm Calm - 0.00 in   Clear
5:55 AM 73.4 °F - - N/A% 30.07 in 9.0 mi Calm Calm - 0.00 in   Clear
6:15 AM 73.4 °F - - N/A% 30.09 in 8.0 mi Calm Calm - 0.00 in   Clear
6:35 AM 73.4 °F - - N/A% 30.09 in 7.0 mi Calm Calm - 0.00 in   Clear
6:55 AM 73.4 °F - - N/A% 30.10 in 8.0 mi Calm Calm - 0.00 in   Clear
7:15 AM 73.4 °F - - N/A% 30.10 in 7.0 mi Calm Calm - 0.00 in   Clear
7:35 AM 73.4 °F - - N/A% 30.11 in 5.0 mi Calm Calm - 0.00 in   Clear
7:55 AM 75.2 °F - - N/A% 30.12 in 5.0 mi Calm Calm - 0.00 in   Clear
8:15 AM 78.8 °F - - N/A% 30.13 in 5.0 mi Calm Calm - 0.00 in   Clear
8:35 AM 80.6 °F 89.3 °F 80.6 °F 100% 30.13 in 7.0 mi Calm Calm - 0.00 in   Clear
9:15 AM 87.8 °F 108.2 °F 82.4 °F 84% 30.14 in 8.0 mi Calm Calm - 0.00 in   Clear
9:35 AM 89.6 °F 111.1 °F 82.4 °F 79% 30.14 in 8.0 mi Calm Calm - 0.00 in   Clear
9:55 AM 89.6 °F 115.0 °F 84.2 °F 84% 30.14 in 7.0 mi East 4.6 mph - 0.00 in   Clear
10:15 AM 91.4 °F 114.3 °F 82.4 °F 75% 30.14 in 8.0 mi Calm Calm - 0.00 in   Clear
10:35 AM 91.4 °F 111.0 °F 80.6 °F 71% 30.14 in 7.0 mi Calm Calm - 0.00 in   Clear
10:55 AM 93.2 °F 110.2 °F 78.8 °F 63% 30.14 in 7.0 mi East 5.8 mph - 0.00 in   Clear
11:15 AM 93.2 °F 107.2 °F 77.0 °F 59% 30.14 in 7.0 mi ESE 5.8 mph - 0.00 in   Clear
11:35 AM 93.2 °F 105.0 °F 75.2 °F 56% 30.14 in 7.0 mi Calm Calm - 0.00 in   Partly Cloudy
12:15 PM 95.0 °F 104.5 °F 73.4 °F 49% 30.14 in 9.0 mi East 8.1 mph - 0.00 in   Clear
12:35 PM 96.8 °F 107.3 °F 73.4 °F 47% 30.13 in 8.0 mi Calm Calm - 0.00 in   Partly Cloudy
12:55 PM 96.8 °F 107.3 °F 73.4 °F 47% 30.12 in 7.0 mi Calm Calm - 0.00 in   Scattered Clouds
1:15 PM 96.8 °F 105.1 °F 71.6 °F 44% 30.11 in 8.0 mi Calm Calm - 0.00 in   Clear
1:35 PM 96.8 °F 107.3 °F 73.4 °F 47% 30.10 in 8.0 mi ENE 5.8 mph - 0.00 in   Partly Cloudy
2:15 PM 96.8 °F 105.1 °F 71.6 °F 44% 30.10 in 7.0 mi Calm Calm - 0.00 in   Clear
2:55 PM 98.6 °F 107.7 °F 71.6 °F 42% 30.09 in 7.0 mi ENE 6.9 mph - 0.00 in   Partly Cloudy
3:15 PM 98.6 °F 107.7 °F 71.6 °F 42% 30.08 in 7.0 mi NE 9.2 mph - 0.00 in   Partly Cloudy
3:35 PM 98.6 °F 107.7 °F 71.6 °F 42% 30.07 in 7.0 mi East 6.9 mph - 0.00 in   Clear
3:55 PM 98.6 °F 107.7 °F 71.6 °F 42% 30.07 in 8.0 mi East 9.2 mph - 0.00 in   Scattered Clouds
4:35 PM 96.8 °F 112.2 °F 77.0 °F 53% 30.07 in 9.0 mi ESE 12.7 mph 19.6 mph 0.00 in   Mostly Cloudy
5:15 PM 89.6 °F 104.7 °F 78.8 °F 70% 30.08 in 5.0 mi South 11.5 mph - 0.00 in   Mostly Cloudy
5:35 PM 84.2 °F 103.5 °F 84.2 °F 100% 30.08 in 4.0 mi South 8.1 mph - 0.00 in   Scattered Clouds
6:15 PM 87.8 °F 108.2 °F 82.4 °F 84% 30.06 in 9.0 mi South 4.6 mph - 0.00 in   Clear
6:55 PM 87.8 °F 104.9 °F 80.6 °F 79% 30.06 in 8.0 mi ESE 4.6 mph - 0.00 in   Clear
7:15 PM 86.0 °F 101.9 °F 80.6 °F 84% 30.07 in 7.0 mi Calm Calm - 0.00 in   Clear
7:35 PM 82.4 °F 96.1 °F 82.4 °F 100% 30.06 in 7.0 mi Calm Calm - 0.00 in   Clear
7:55 PM 82.4 °F 96.1 °F 82.4 °F 100% 30.07 in 8.0 mi Calm Calm - 0.00 in   Clear
8:15 PM 80.6 °F 89.3 °F 80.6 °F 100% 30.08 in 9.0 mi Calm Calm - 0.00 in   Clear
8:35 PM 80.6 °F 89.3 °F 80.6 °F 100% 30.09 in 10.0 mi Calm Calm - 0.00 in   Clear
8:55 PM 78.8 °F - 78.8 °F 100% 30.10 in 10.0 mi Calm Calm - 0.00 in   Clear
9:15 PM 80.6 °F 89.3 °F 80.6 °F 100% 30.11 in 9.0 mi Calm Calm - 0.00 in   Clear
9:35 PM 78.8 °F - - N/A% 30.11 in 10.0 mi Calm Calm - 0.00 in   Clear
10:15 PM 78.8 °F - - N/A% 30.12 in 9.0 mi Calm Calm - 0.00 in   Clear
10:35 PM 78.8 °F - - N/A% 30.12 in 9.0 mi Calm Calm - 0.00 in   Clear
10:55 PM 77.0 °F - - N/A% 30.13 in 9.0 mi Calm Calm - 0.00 in   Clear
11:15 PM 75.2 °F - - N/A% 30.13 in 9.0 mi Calm Calm - 0.00 in   Clear
11:35 PM 77.0 °F - - N/A% 30.13 in 10.0 mi Calm Calm - 0.00 in   Clear
11:55 PM 75.2 °F - - N/A% 30.13 in 9.0 mi Calm Calm - 0.00 in   Clear